This demonstration page uses our WeatherBlox Daily Observations layout. Learn more.

Left ArrowRight Arrow

44.31136, -96.79839

Hourly Observations for May 22, 2018

Temp ( °F °C ) Dew Point ( °F °C ) Humidity (%) Winds ( mph kmh ) Pressure ( in mb ) Visibility ( mi km ) Precip ( " mm )
12:56 am 00:56 Clear with Mist and Fog 54 12.2 53 11.7 97 97 SE 6 9 30.04 1017 4 6 0.00 0.00
1:25 am 01:25 Clear with Mist and Fog 54 12 52 11 94 94 SE 5 7 30.00 1016 2 3 0.00 0.00
1:48 am 01:48 Clear with Mist and Fog 54 12 54 12 100 100 SSE 5 7 30.00 1016 3 5 0.00 0.00
1:56 am 01:56 Clear with Mist and Fog 53 11.7 53 11.7 100 100 SSE 3 6 30.04 1017 3 4 0.00 0.00
2:07 am 02:07 Clear with Mist and Fog 54 12 52 11 94 94 SE 5 7 30.00 1016 2 2 0.00 0.00
2:29 am 02:29 Mostly Clear with Mist and Fog 54 12 54 12 100 100 SSE 6 9 30.00 1016 2 3 0.00 0.00
2:35 am 02:35 Mostly Cloudy with Mist and Fog 54 12 54 12 100 100 SE 5 7 30.00 1016 1 1 0.00 0.00
2:40 am 02:40 Mostly Cloudy with Fog 52 11 52 11 100 100 SE 6 9 30.00 1016 0 0 0.00 0.00
2:56 am 02:56 Cloudy with Fog 53 11.7 52 11.1 96 96 SE 6 9 30.04 1017 0 0 0.00 0.00
3:56 am 03:56 Cloudy with Fog 53 11.7 53 11.7 100 100 SE 5 7 30.04 1017 0 0 0.00 0.00
4:56 am 04:56 Cloudy with Fog 52 11.1 51 10.6 97 97 SE 7 11 30.04 1017 0 0 0.00 0.00
5:56 am 05:56 Cloudy with Fog 51 10.6 51 10.6 100 100 SE 5 7 30.04 1017 5 8 0.00 0.00
6:56 am 06:56 Cloudy with Fog 51 10.6 51 10.6 100 100 SE 6 9 30.05 1018 0 0 0.00 0.00
7:56 am 07:56 Cloudy with Fog 53 11.7 53 11.7 100 100 SSE 6 9 30.07 1018 0 0 0.00 0.00
8:02 am 08:02 Cloudy with Mist and Fog 54 12 54 12 100 100 S 7 11 30.03 1017 1 1 0.00 0.00
8:08 am 08:08 Cloudy with Mist and Fog 54 12 54 12 100 100 SSE 7 11 30.03 1017 1 2 0.00 0.00
8:25 am 08:25 Mostly Cloudy with Mist and Fog 54 12 54 12 100 100 SSE 7 11 30.03 1017 3 5 0.00 0.00
8:56 am 08:56 Partly Cloudy 56 13.3 56 13.3 100 100 SSE 7 11 30.07 1018 8 13 0.00 0.00
9:56 am 09:56 Sunny 63 17.2 60 15.6 90 90 VRB 7 11 30.06 1018 10 16 0.00 0.00
10:56 am 10:56 Sunny 70 21.1 60 15.6 71 71 ESE 7 11 30.04 1017 10 16 0.00 0.00
11:56 am 11:56 Sunny 74 23.3 58 14.4 57 57 VRB 6 9 30.03 1017 10 16 0.00 0.00
12:56 pm 12:56 Sunny 75 23.9 56 13.3 52 52 VRB 3 6 30.02 1017 10 16 0.00 0.00
1:56 pm 13:56 Sunny 78 25.6 55 12.8 45 45 ESE 8 13 30.01 1016 10 16 0.00 0.00
2:56 pm 14:56 Sunny 79 26.1 57 13.9 47 47 S 13 20 29.99 1016 10 16 0.00 0.00
3:56 pm 15:56 Mostly Sunny 79 26.1 57 13.9 47 47 SSE 14 22 29.99 1016 10 16 0.00 0.00
4:56 pm 16:56 Sunny 80 26.7 59 15 49 49 SE 12 19 29.98 1015 10 16 0.00 0.00
5:56 pm 17:56 Sunny 79 26.1 61 16.1 54 54 SSE 9 15 29.98 1015 10 16 0.00 0.00
6:56 pm 18:56 Sunny 78 25.6 62 16.7 58 58 SSE 8 13 29.97 1015 10 16 0.00 0.00
7:56 pm 19:56 Mostly Sunny 77 25 62 16.7 60 60 SSE 9 15 29.97 1015 10 16 0.00 0.00
8:56 pm 20:56 Clear 73 22.8 62 16.7 69 69 SE 8 13 29.97 1015 10 16 0.00 0.00
9:56 pm 21:56 Clear 72 22.2 62 16.7 71 71 SE 9 15 29.99 1016 10 16 0.00 0.00
10:56 pm 22:56 Clear 69 20.6 62 16.7 78 78 SE 8 13 30.01 1016 10 16 0.00 0.00
11:56 pm 23:56 Partly Cloudy 68 20 61 16.1 78 78 ESE 7 11 30.02 1017 10 16 0.00 0.00

Powered by AerisWeather